www.pogodaiklimat.ru

Погода и климат >> Архив погоды >> Россия >> город Севастополь >> Херсонесский Маяк


ПОГОДА в Херсонесском Маяке

  • Прогноз погоды в Херсонесском Маяке
  • Монитор погоды в Херсонесском Маяке

АРХИВ ПОГОДЫ в Херсонесском Маяке

Время (UTC), дата Ветер
(напр.,м/с)
 
Видим.   Явления Облачность Т
(С)
Тd
(С)
f
(%)
Тe
(С)
Тes
(С)
Комфортность P
(гПа)
Po
(гПа)
Тmin
(С)
Tmax
(С)
R
(мм)
R24
(мм)
S
(см)
09 12.02 Ю 5 20 км 10/8 600 м
[Sc Ac As]
+13.4 +3.5 51 +12 +12 1010.5 1010.7
12 12.02 Ю 7 20 км 10/10 600 м
[Cb cap]
+13.0 +3.1 51 +11 +11 1010.3 1009.3
15 12.02 Ю 5 20 км 10/9 600 м
[Cu Sc Ac As]
+12.7 +4.2 56 +11 +11 1010.3 1009.3
18 12.02 ЮЗ 6 20 км в посл. час ливневой дождь 10/10 600 м
[Cb cap]
+11.3 +5.7 68 +8 +8 1012.4 1011.7 +14.1 0.4
21 12.02 ЮЗ 4
{11}
10 км слаб. ливневой дождь 10/10 600 м
[Cb cap]
+7.3 +6.1 92 +4 +4 1016.1 1015.4
00 13.02 З 4 20 км {ливн. осадки} 10/9 600 м
[Cu Sc Ac As]
+7.3 +5.4 88 +4 +4 1017.6 1016.9
03 13.02 СЗ 5 20 км 10/10 600 м
[Cu Sc]
+6.6 +2.8 77 +3 +3 1019.6 1018.9 +6.6 6
06 13.02 СВ 4 20 км 10/6 600 м
[Sc Ac As]
+5.4 +1.9 78 +2 +2 1022.5 1022.7 +5.4 6.0
09 13.02 СВ 7
{10}
9 баллов 79 1024.0
12 13.02 С 6 20 км 10/3 600 м
[Cu Sc Ac As Cs]
+6.0 +2.3 77 +1 +2 1025.1 1025.3
15 13.02 СВ 4 20 км 9/3 600 м
[Cu Sc Ac As Cs]
+5.7 +0.9 71 +2 +2 1026.0 1025.3
18 13.02 СВ 5 20 км 5/0
[Cc]
+4.6 -0.8 68 0 0 1027.5 1026.8 +6.1
21 13.02 СВ 4 20 км 8/3 600 м
[Sc Ac trans]
+3.9 -1.3 69 1027.1 1026.7
00 14.02 СВ 6 20 км 1/1 600 м
[Sc]
+1.9 -0.9 82 -4 -4 1027.5 1026.7
03 14.02 СВ 3 20 км ясно +0.6 -2.0 83 -4 -4 1026.8 1026.0 +0.6
06 14.02 СВ 4 20 км 8/4 600 м
[Cu Sc Ac trans Cc]
+1.0 -1.6 83 -4 -4 1027.2 1026.4 +0.3
09 14.02 В 3 20 км 8/6 600 м
[Cu Sc Ci fib]
+4.9 -2.3 60 +2 +4 1025.7 1025.3
12 14.02 С 5 20 км 8/1 600 м
[Cu Sc Ci fib]
+6.4 -1.3 58 +3 +4 1023.5 1022.7
15 14.02 СВ 5 20 км 8/1 600 м
[Sc Ac trans Ci fib]
+6.5 -3.6 48 +3 +3 1023.3 1022.7
18 14.02 СВ 3 20 км 6/0 600 м
[Ac trans Ci fib]
+2.9 -3.2 64 -1 -1 1023.7 1023.0 +7.3
21 14.02 СВ 3 20 км 3/0
[Ci fib]
+0.8 -3.4 73 -3 -3 1023.6 1022.7
00 15.02 СВ 3 20 км 8/0
[Ci fib]
+1.9 -3.8 66 -2 -2 1024.1 1024.0
03 15.02 СВ 4 20 км 8/0
[Ac trans Ci fib]
+1.7 -1.7 78 -3 -3 1023.6 1022.9 +0.8
06 15.02 СВ 7
{11}
20 км 9/6 600 м
[Cu Sc Ci fib]
+2.8 -1.1 75 -3 -3 1024.6 1023.9 +0.8
09 15.02 СВ 7
{11}
20 км 4/0
[Ci fib]
+4.8 -2.5 59 +1 1024.8 1024.0
12 15.02 С 10-12
{14}
20 км ясно +6.0 -2.9 53 +1 +1 1024.3 1023.6
15 15.02 СВ 11-12
{16}
20 км ясно +3.9 -3.7 58 -3 -3 1025.2 1024.5
18 15.02 СВ 6
{15}
20 км ясно +2.6 -5.1 57 -3 -3 1026.6 1025.9 +7.3
21 15.02 СВ 4 20 км ясно +0.7 -6.2 60 -4 -4 1026.5 1026.7
00 16.02 СВ 2 20 км ясно +0.3 -4.4 71 -3 -3 1026.7 1026.7
03 16.02 В 4 20 км 4/0
[Ci fib]
-1.0 -5.2 73 -6 -6 1026.7 1025.9 -1.0
06 16.02 СВ 4 20 км 8/3 600 м
[Sc Ac trans]
+1.1 -3.4 72 -4 -4 1026.9 1026.1 -1.0
09 16.02 В 4 20 км 10/10 600 м
[Sc]
+2.3 -1.7 75 -2 -2 1027.5 1026.7
12 16.02 СВ 4 20 км 10/10 600 м
[Sc]
+4.2 0.0 74 1026.2 1025.3
15 16.02 СВ 4 10 баллов 74 1025.3
18 16.02 В 2 20 км 10/10 600 м
[Sc]
+4.8 +1.0 76 +2 +2 1026.5 1025.8 +4.8
21 16.02 В 2 20 км 10/10 600 м
[Sc]
+5.3 +1.8 78 +3 +3 1026.1 1025.3
00 17.02 В 2 20 км 10/10 600 м
[Sc]
+5.5 +2.0 78 +3 +3 1025.7 1025.3
03 17.02 В 2 20 км 10/10 600 м
[Sc]
+5.9 +2.8 80 +4 +4 1024.9 1024.2 +4.5
06 17.02 В 1 20 км 10/5 600 м
[Sc Ac As]
+6.0 +3.1 82 +5 +5 1025.1 1025.3 +4.8
09 17.02 З 2 20 км 10/10 600 м
[Sc]
+8.3 +5.2 81 +6 +6 1025.1 1025.3
12 17.02 З 3 20 км 9/9 600 м
[Sc]
+9.2 +6.0 80 +7 +7 1023.2 1022.7
15 17.02 З 2 10 км 6/6 600 м
[St]
+8.9 +6.6 85 +7 +7 1021.9 1021.3
18 17.02 Ю 1 10 км 9/9 600 м
[St]
+8.3 +6.6 89 +7 +7 1021.4 1020.7 +9.3
21 17.02 штиль 0 10 км ясно +6.5 +5.6 94 +5 +5 1020.9 1020.0
00 18.02 штиль 0 20 км 1/1 600 м
[Sc]
+5.7 +5.0 95 +5 +5 1019.6 1018.7
03 18.02 В 2 20 км ясно +5.8 +4.9 94 +3 +3 1018.7 1018.0 +5.4
06 18.02 СВ 3 20 км 9/9 600 м
[Sc]
+5.7 +4.3 91 +2 +2 1020.0 1020.0 +5.4
09 18.02 СВ 5 10 км 10/10 600 м
[Sc]
+7.2 +3.1 75 +3 +3 1021.4 1021.3
12 18.02 С 6 20 км 3/3 600 м
[Cu med, cong Ci fib]
+7.9 +2.4 68 +4 +5 1020.7 1020.0
15 18.02 С 6 20 км 1/0 600 м
[Ci fib]
+8.2 +1.4 62 +4 +4 1021.4 1021.3
18 18.02 В 3 20 км ясно +6.3 -0.5 62 +4 +4 1023.1 1022.7 +8.5
21 18.02 штиль 0 ясно 69 1024.0
00 19.02 В 1 ясно 73 1024.0
03 19.02 В 2 20 км ясно +0.6 -2.4 80 -3 -3 1025.1 1024.3 +0.5
06 19.02 В 2 ясно 82 1026.7

 

Местоположение метеостанции Херсонесский Маяк (город Севастополь, Россия): широта 44.58 долгота 33.38 высота над уровнем моря 4 м.

В архиве по умолчанию представлена погода в Херсонесском Маяке за последнюю неделю. Архивные данные за месяц целиком и за предыдущие месяцы, начиная с января 2011 года, Вы можете получить, выбрав интересующий диапазон дат из раскрывающегося списка и нажав кнопку "Ввод!".


*Определитесь, кто Вы:
робот инопланетянин человек

Внимание! Время в таблицах - всемирное. Для получения местного времени необходимо прибавить поправку, которая равна 3 ч.

Смотрите также архив погоды в соседних городах и на ближайших метеорологических станциях:

Погода в Севастополе (город Севастополь, Россия) (13 км)
Погода в Почтовом (Крым, Россия) (53 км)
Погода на Ай-Петри (Крым, Россия) (57 км)
Погода в Ялте (Крым, Россия) (64 км)
Погода в Евпатории (Крым, Россия) (67 км)
Погода в Симферополе (Крым, Россия) (68 км)
Погода в Никитском саду (Крым, Россия) (69 км)
Погода в Симферополе город (Крым, Россия) (71 км)
Погода на Ангарском Перевале (Крым, Россия) (79 км)
Погода в Алуште (Крым, Россия) (81 км)

Пояснения к столбцам:

Ветер - указаны скорость ветра в м/с - средняя за 10 мин, порывы в срок и между сроками (в фигурных скобках) и направление, откуда дует ветер: С - северный, СВ - северо-восточный, В - восточный, ЮВ - юго-восточный, Ю - южный, ЮЗ - юго-западный, З - западный, СЗ - северо-западный.
Видимость - горизонтальная дальность видимости в метрах или километрах. При видимости от 1 до 10 км при отсутствии осадков обычно наблюдается дымка, при ухудшении видимости до 1 км и менее - туман. В сухую погоду видимость может ухудшаться дымом, пылью или мглою.
Явления - указаны атмосферные явления, наблюдавшиеся в срок или в последний час перед сроком; фигурными скобками обозначены явления, наблюдавшиеся между сроками (за 1-3 часа до срока); квадратными скобками обозначены град или гололедные отложения с указанием их диаметра в мм.
Облачность - указаны через наклонную черту общая и нижняя облачность в баллах и высота нижней границы облаков в метрах; квадратными скобками обозначены формы облаков: Ci - перистые, Cs - перисто-слоистые, Cc - перисто-кучевые, Ac - высококучевые, As - высокослоистые, Sc - слоисто-кучевые, Ns - слоисто-дождевые, Cu - кучевые, Cb - кучево-дождевые. Подробнее классификацию облаков см. в Атласе облаков (PDF).
T - Температура воздуха - температура, измеренная на высоте 2 м над землей.
Td - Температура точки росы - температура, при понижении до которой содержащийся в воздухе водяной пар достигнет насыщения.
f - Относительная влажность воздуха - влажноcть воздуха, измеренная на высоте 2 м над землей.
Te - Эффективная температура - температура, которую ощущает одетый по сезону человек в тени. Характеристика душности погоды. При расчете учитывается влияние влажности воздуха и скорости ветра на теплоощущения человека.
Tes - Эффективная температура на солнце - температура, которую ощущает человек, с поправкой на солнечный нагрев. Характеристика знойности погоды. Зависит от высоты солнца над горизонтом, облачности и скорости ветра. Ночью, в пасмурную погоду, а также при ветре 12 м/с и более поправка равна нулю.
P - Атмосферное давление - приведенное к уровню моря атмосферное давление.
Po - Атмосферное давление - измеренное на уровне метеостанции атмосферное давление.
Tmin - Минимальная температура - минимум температуры воздуха на высоте 2 м над землей.
Tmax - Максимальная температура - максимум температуры воздуха на высоте 2 м над землей.
R - Количество осадков - Количество выпавших осадков за период времени, мм. При наведении курсора мыши на число - период времени, за который выпало указанное количество осадков.
R24 - Количество осадков - Количество выпавших осадков за 24 часа, мм.
S - Снежный покров - Высота снежного покрова, см. При наведении курсора мыши на число - состояние снежного покрова и степень покрытия местности в баллах.